Regional Weather Roundup
Issued by NWS

Home | Current Version | Previous Version | Text Only | Print | Product List | Glossary On
Versions: 1 2 3 4 5 6 7 8 9 10 11 12 13 14 15 16 17 18 19 20 21 22 23 24 25 26 27 28 29 30 31 32 33 34 35 36 37 38 39 40 41 42 43 44 45 46 47 48 49 50
000
ASUS44 KBMX 190010
RWRAL

ALABAMA REGIONAL WEATHER ROUNDUP
NATIONAL WEATHER SERVICE BIRMINGHAM AL
600 PM CST SAT NOV 18 2017

NOTE: "FAIR" INDICATES FEW OR NO CLOUDS BELOW 12,000 FEET
WITH NO SIGNIFICANT WEATHER AND/OR OBSTRUCTIONS TO VISIBILITY.

THE REMARK "TC" DENOTES TEMPERATURE IN DEGREES CELSIUS.

ALZ001>011-014-016>018-020-190100-
NORTH ALABAMA

CITY           SKY/WX    TMP DP  RH WIND       PRES   REMARKS
MUSCLE SHOALS  CLOUDY    58  53  84 NW25G36   29.69R
6HR MIN TEMP:  58; 6HR MAX TEMP:  73; 6HR PCP:  0.38;

HUNTSVILLE     HVY RAIN  65  63  93 NW31G58   29.64R FOG
6HR MIN TEMP:  68; 6HR MAX TEMP:  73; 6HR PCP: TRACE;

DECATUR        CLOUDY    61  59  93 MISG      29.66R
6HR MIN TEMP:  67; 6HR MAX TEMP:  71; 6HR PCP:  0.10;

HALEYVILLE     LGT RAIN  57  55  94 NW16G29   29.74R
6HR MIN TEMP:  60; 6HR MAX TEMP:  70; 6HR PCP:  0.13;

GADSDEN        CLOUDY    71  63  75 SW9G17    29.67F
6HR MIN TEMP:  68; 6HR MAX TEMP:  71;

$$

ALZ012-013-022-023-030>036-040>044-190100-
WEST CENTRAL ALABAMA

CITY           SKY/WX    TMP DP  RH WIND       PRES   REMARKS
TUSCALOOSA     PTCLDY    73  65  75 S17G25    29.68F
6HR MIN TEMP:  73; 6HR MAX TEMP:  76;

DEMOPOLIS        N/A     74  62  67 S10       29.74R
6HR MIN TEMP:  74; 6HR MAX TEMP:  79;

$$

ALZ015-024>026-033>036-041>044-190100-
CENTRAL ALABAMA

CITY           SKY/WX    TMP DP  RH WIND       PRES   REMARKS
BIRMINGHAM     CLOUDY    72  60  66 SW17G28   29.70F
6HR MIN TEMP:  70; 6HR MAX TEMP:  75;

MONTGOMERY     CLOUDY    73  59  61 S10       29.77F
6HR MIN TEMP:  73; 6HR MAX TEMP:  78;

SHELBY CO ARPT CLOUDY    73  62  68 S12G20    29.71F
6HR MIN TEMP:  72; 6HR MAX TEMP:  76;

MAXWELL AFB    CLOUDY    73  61  65 S10       29.75F
6HR MIN TEMP:  73; 6HR MAX TEMP:  77;

GREENVILLE     FAIR      71  58  63 S12       29.80S
6HR MIN TEMP:  71; 6HR MAX TEMP:  78; 6HR PCP: TRACE;

SELMA          CLOUDY    73  61  64 S17       29.75F
PRATTVILLE     CLOUDY    72  60  66 S9        29.76F
6HR MIN TEMP:  72; 6HR MAX TEMP:  76;

BESSEMER       MOCLDY    71  62  73 S14G24    29.70F
6HR MIN TEMP:  69; 6HR MAX TEMP:  74;

TALLADEGA      CLOUDY    72  62  71 SW12      29.70F
6HR MIN TEMP:  70; 6HR MAX TEMP:  73;

PELL CITY      MOCLDY    73  63  68 S15G23    29.68F
MARION         FAIR      72  63  72 S9G21     29.73F
6HR MIN TEMP:  72; 6HR MAX TEMP:  77;

SYLACAUGA      CLOUDY    73  63  72 SW13G20   29.72F
6HR MIN TEMP:  70; 6HR MAX TEMP:  74;

$$

ALZ019-021-028-029-037-038-045>048-190100-
EAST CENTRAL ALABAMA

CITY           SKY/WX    TMP DP  RH WIND       PRES   REMARKS
ANNISTON       CLOUDY    71  61  70 S10G20    29.69F
6HR MIN TEMP:  69; 6HR MAX TEMP:  73;

ALEXANDER CITY MOCLDY    68  63  82 S8        29.75F
6HR MIN TEMP:  68; 6HR MAX TEMP:  72;

AUBURN         MOCLDY    67  62  84 S16       29.80F
6HR MIN TEMP:  67; 6HR MAX TEMP:  72;

$$

ALZ051>064-190100-
SOUTHWEST ALABAMA

CITY           SKY/WX    TMP DP  RH WIND       PRES   REMARKS
MOBILE         CLEAR     72  66  81 S12       29.86S
6HR MIN TEMP:  72; 6HR MAX TEMP:  80;

BROOKLEY FIELD PTCLDY    74  68  81 S9        29.86F
6HR MIN TEMP:  74; 6HR MAX TEMP:  81;

EVERGREEN      CLEAR     72  62  71 SW12      29.82F
6HR MIN TEMP:  72; 6HR MAX TEMP:  79;

$$

ALZ049-050-065>069-190100-
SOUTHEAST ALABAMA

CITY           SKY/WX    TMP DP  RH WIND       PRES   REMARKS
DOTHAN         CLOUDY    70  64  81 S8        29.91R
6HR MIN TEMP:  70; 6HR MAX TEMP:  78;

OZARK          CLOUDY    70  64  81 S6        29.87R
6HR MIN TEMP:  70; 6HR MAX TEMP:  77; 6HR PCP: TRACE;

TROY           CLEAR     69  64  84 S9        29.82F
6HR MIN TEMP:  69; 6HR MAX TEMP:  74;

EUFAULA        FAIR      71  63  75 S7        29.82F
6HR MIN TEMP:  71; 6HR MAX TEMP:  78;

$$



USA.gov is the U.S. government's official web portal to all federal, state and local government web resources and services.